Regional Weather Roundup
Issued by NWS Burlington, VT

Home | Current Version | Previous Version | Text Only | Print | Product List | Glossary On
Versions: 1 2 3 4 5 6 7 8 9 10 11 12 13 14 15 16 17 18 19 20 21 22 23 24 25 26 27 28 29 30 31 32 33 34 35 36 37 38 39 40 41 42 43 44 45 46 47 48 49 50
481
ASUS41 KBTV 260510
RWRBTV
VERMONT REGIONAL WEATHER ROUNDUP
NATIONAL WEATHER SERVICE BURLINGTON VT
100 AM EDT MON SEP 26 2016

NOTE: "FAIR" INDICATES FEW OR NO CLOUDS BELOW 12,000 FEET WITH NO
SIGNIFICANT WEATHER AND/OR OBSTRUCTIONS TO VISIBILITY.

* THESE REPORTS ARE NOT UNDER NWS QUALITY CONTROL AND/OR DO NOT
  REPORT WEATHER SUCH AS PRECIPITATION AND FOG.

VTZ001>019-260600-
_____VERMONT_____


CITY           SKY/WX    TMP DP  RH WIND       PRES   REMARKS
BURLINGTON     CLEAR     42  37  82 CALM      30.21S
MONTPELIER     CLEAR     36  33  89 CALM      30.24S
MORRISVILLE    PTCLDY    33  31  92 CALM      30.23S
ST. JOHNSBURY*   N/A     38  37  97 MISG      30.21R
LYNDONVILLE*   FAIR      37  35  96 NE3       30.22R
MIDDLEBURY*    FAIR      40  40 100 CALM      30.20F
RUTLAND*       CLEAR     39  36  89 SE8       30.22R
SPRINGFIELD    CLEAR     36  33  89 CALM      30.23S
HIGHGATE*      FAIR      39  38  95 SE3       30.20S
NEWPORT*       FAIR      36  35  99 SW3       30.21S
BENNINGTON     CLEAR     36  34  92 CALM      30.21S
SUTTON*          N/A     37 N/A N/A MISG        N/A

_____LAKE CHAMPLAIN_____


CITY           SKY/WX    TMP DP  RH WIND       PRES   REMARKS
BURTON ISLAND*   N/A     54  45  71 SE6         N/A
COLCHESTER RF*   N/A     54  45  71 W6          N/A
DIAMOND ISL*     N/A     46  43  87 SE7         N/A

$$

NYZ007-026>031-035-052-083-087-260600-
_____NORTHERN NEW YORK_____


CITY           SKY/WX    TMP DP  RH WIND       PRES   REMARKS
PLATTSBURGH    CLEAR     40  37  89 CALM      30.20S
SARANAC LAKE   CLOUDY    29  26  89 CALM      30.19F
MASSENA        CLOUDY    38  35  89 CALM      30.21S
WATERTOWN      CLOUDY    40  38  93 E3        30.19F
FT DRUM        CLOUDY    44  40  87 SE3       30.19S
ALBANY         PTCLDY    46  41  82 CALM      30.22S
GLENS FALLS    CLEAR     38  36  92 S3        30.21S

$$
NHZ002-005-011-260600-
_____NEW HAMPSHIRE_____


CITY           SKY/WX    TMP DP  RH WIND       PRES   REMARKS
LEBANON        CLEAR     35  34  96 CALM      30.22R
KEENE          CLEAR     36  35  96 CALM      30.23S
MT WASHINGTON  PTCLDY    27  21  80 NW35        N/A  WCI   9
PLYMOUTH       FAIR      35  35  98 CALM      30.21S
WHITEFIELD     PTCLDY    32  28  85 CALM      30.21R

$$

_____REGIONAL QUEBEC LOCATIONS_____


CITY           SKY/WX    TMP DP  RH WIND       PRES   REMARKS
MONTREAL       PTCLDY    46  39  76 NW3       30.19S
QUEBEC CITY    CLEAR     45  37  76 CALM      30.16S
SHERBROOKE     CLEAR     32  32 100 E2        30.18S

_____REGIONAL ONTARIO LOCATIONS_____


CITY           SKY/WX    TMP DP  RH WIND       PRES   REMARKS
OTTAWA         MOCLDY    45  39  81 E5        30.18S

______KEY______
VSB  - VISIBILITY IN MILES
WCI  - WIND CHILL INDEX
HX   - HEAT INDEX
$$
NNNN




USA.gov is the U.S. government's official web portal to all federal, state and local government web resources and services.